PRIVATE WETTERSTATION BILLIGHEIM-ALLFELD                       ZURCK
Wetterdaten: Sonntag, 13.07.2014
Datum Zeit Temp. A. Temp. A. min Temp. A. max Feuchte A. Luftdruck Regen Wind Richtung Richtung Sonnenschein ET Solar Taupunkt Windchill Windben Empfang
13.07.2014 00:00 16,7 C 16,7 C 16,7 C 87 % 1011,2 hPa 0,0 l/m 3,2 km/h (1 Bft) W 270 0 min 0,025 mm 0 W/m 14,5 C 16,7 C 14,5 km/h (3 Bft) 100 %
13.07.2014 00:10 16,7 C 16,7 C 16,7 C 87 % 1011,2 hPa 0,0 l/m 3,2 km/h (1 Bft) W 270 0 min 0,000 mm 0 W/m 14,5 C 16,7 C 9,7 km/h (2 Bft) 100 %
13.07.2014 00:20 16,7 C 16,7 C 16,7 C 87 % 1011,2 hPa 0,0 l/m 4,8 km/h (1 Bft) W 270 0 min 0,000 mm 0 W/m 14,5 C 16,7 C 11,3 km/h (2 Bft) 100 %
13.07.2014 00:30 16,7 C 16,7 C 16,8 C 87 % 1011,2 hPa 0,0 l/m 1,6 km/h (1 Bft) W 270 0 min 0,000 mm 0 W/m 14,5 C 16,7 C 8,0 km/h (2 Bft) 100 %
13.07.2014 00:40 16,8 C 16,7 C 16,8 C 87 % 1011,2 hPa 0,0 l/m 4,8 km/h (1 Bft) W-SW 247 0 min 0,000 mm 0 W/m 14,6 C 16,8 C 11,3 km/h (2 Bft) 100 %
13.07.2014 00:50 16,8 C 16,8 C 16,8 C 87 % 1011,1 hPa 0,0 l/m 6,4 km/h (2 Bft) W-SW 247 0 min 0,000 mm 0 W/m 14,6 C 16,8 C 16,1 km/h (3 Bft) 100 %
13.07.2014 01:00 16,8 C 16,8 C 16,8 C 87 % 1011,1 hPa 0,0 l/m 3,2 km/h (1 Bft) W-SW 247 0 min 0,025 mm 0 W/m 14,6 C 16,8 C 9,7 km/h (2 Bft) 100 %
13.07.2014 01:10 16,7 C 16,7 C 16,8 C 87 % 1011,1 hPa 0,0 l/m 1,6 km/h (1 Bft) W-SW 247 0 min 0,000 mm 0 W/m 14,5 C 16,7 C 9,7 km/h (2 Bft) 100 %
13.07.2014 01:20 16,7 C 16,7 C 16,7 C 87 % 1011,0 hPa 0,0 l/m 3,2 km/h (1 Bft) W-NW 292 0 min 0,000 mm 0 W/m 14,5 C 16,7 C 9,7 km/h (2 Bft) 100 %
13.07.2014 01:30 16,7 C 16,7 C 16,7 C 87 % 1011,1 hPa 0,0 l/m 4,8 km/h (1 Bft) W 270 0 min 0,000 mm 0 W/m 14,5 C 16,7 C 14,5 km/h (3 Bft) 100 %
13.07.2014 01:40 16,6 C 16,6 C 16,7 C 87 % 1011,0 hPa 0,0 l/m 4,8 km/h (1 Bft) W 270 0 min 0,000 mm 0 W/m 14,4 C 16,6 C 16,1 km/h (3 Bft) 100 %
13.07.2014 01:50 16,6 C 16,6 C 16,6 C 87 % 1011,0 hPa 0,2 l/m 6,4 km/h (2 Bft) W-NW 292 0 min 0,000 mm 0 W/m 14,4 C 16,6 C 16,1 km/h (3 Bft) 100 %
13.07.2014 02:00 16,4 C 16,4 C 16,6 C 87 % 1011,0 hPa 0,0 l/m 6,4 km/h (2 Bft) W 270 0 min 0,025 mm 0 W/m 14,2 C 16,4 C 11,3 km/h (2 Bft) 99 %
13.07.2014 02:10 16,3 C 16,3 C 16,4 C 87 % 1010,9 hPa 0,0 l/m 6,4 km/h (2 Bft) W 270 0 min 0,000 mm 0 W/m 14,1 C 16,3 C 17,7 km/h (3 Bft) 100 %
13.07.2014 02:20 16,2 C 16,2 C 16,3 C 87 % 1010,9 hPa 0,2 l/m 6,4 km/h (2 Bft) W 270 0 min 0,000 mm 0 W/m 14,0 C 16,2 C 19,3 km/h (3 Bft) 100 %
13.07.2014 02:30 16,1 C 16,1 C 16,2 C 87 % 1010,8 hPa 0,4 l/m 4,8 km/h (1 Bft) W-NW 292 0 min 0,000 mm 0 W/m 13,9 C 16,1 C 17,7 km/h (3 Bft) 100 %
13.07.2014 02:40 15,9 C 15,9 C 16,1 C 87 % 1010,7 hPa 0,0 l/m 4,8 km/h (1 Bft) W-NW 292 0 min 0,000 mm 0 W/m 13,7 C 15,9 C 16,1 km/h (3 Bft) 100 %
13.07.2014 02:50 15,8 C 15,8 C 15,9 C 87 % 1010,7 hPa 0,0 l/m 1,6 km/h (1 Bft) W-NW 292 0 min 0,000 mm 0 W/m 13,6 C 15,8 C 9,7 km/h (2 Bft) 100 %
13.07.2014 03:00 15,7 C 15,7 C 15,8 C 87 % 1010,7 hPa 0,0 l/m 1,6 km/h (1 Bft) W-SW 247 0 min 0,025 mm 0 W/m 13,5 C 15,7 C 8,0 km/h (2 Bft) 100 %
13.07.2014 03:10 15,6 C 15,6 C 15,7 C 87 % 1010,7 hPa 0,0 l/m 0,0 km/h (0 Bft) W-SW 247 0 min 0,000 mm 0 W/m 13,4 C 15,6 C 1,6 km/h (1 Bft) 100 %
13.07.2014 03:20 15,4 C 15,4 C 15,6 C 87 % 1010,7 hPa 0,0 l/m 0,0 km/h (0 Bft) W-SW 247 0 min 0,000 mm 0 W/m 13,2 C 15,4 C 3,2 km/h (1 Bft) 99 %
13.07.2014 03:30 15,4 C 15,4 C 15,4 C 87 % 1010,6 hPa 0,0 l/m 1,6 km/h (1 Bft) W-SW 247 0 min 0,000 mm 0 W/m 13,2 C 15,4 C 8,0 km/h (2 Bft) 100 %
13.07.2014 03:40 15,4 C 15,4 C 15,4 C 87 % 1010,6 hPa 0,0 l/m 3,2 km/h (1 Bft) W-SW 247 0 min 0,000 mm 0 W/m 13,2 C 15,4 C 11,3 km/h (2 Bft) 100 %
13.07.2014 03:50 15,4 C 15,4 C 15,4 C 87 % 1010,6 hPa 0,0 l/m 1,6 km/h (1 Bft) SW 225 0 min 0,000 mm 0 W/m 13,2 C 15,4 C 9,7 km/h (2 Bft) 100 %
13.07.2014 04:00 15,4 C 15,4 C 15,4 C 87 % 1010,7 hPa 0,0 l/m 4,8 km/h (1 Bft) W-SW 247 0 min 0,000 mm 0 W/m 13,2 C 15,4 C 14,5 km/h (3 Bft) 100 %
13.07.2014 04:10 15,4 C 15,4 C 15,4 C 87 % 1010,6 hPa 0,0 l/m 4,8 km/h (1 Bft) W-SW 247 0 min 0,000 mm 0 W/m 13,2 C 15,4 C 11,3 km/h (2 Bft) 99 %
13.07.2014 04:20 15,4 C 15,4 C 15,4 C 87 % 1010,6 hPa 0,0 l/m 1,6 km/h (1 Bft) W-SW 247 0 min 0,000 mm 0 W/m 13,2 C 15,4 C 8,0 km/h (2 Bft) 99 %
13.07.2014 04:30 15,4 C 15,4 C 15,4 C 87 % 1010,6 hPa 0,0 l/m 1,6 km/h (1 Bft) W 270 0 min 0,000 mm 0 W/m 13,2 C 15,4 C 11,3 km/h (2 Bft) 100 %
13.07.2014 04:40 15,4 C 15,3 C 15,4 C 87 % 1010,6 hPa 0,0 l/m 0,0 km/h (0 Bft) W 270 0 min 0,000 mm 0 W/m 13,2 C 15,4 C 6,4 km/h (2 Bft) 100 %
13.07.2014 04:50 15,3 C 15,3 C 15,4 C 87 % 1010,5 hPa 0,0 l/m 0,0 km/h (0 Bft) W-SW 247 0 min 0,000 mm 0 W/m 13,1 C 15,3 C 4,8 km/h (1 Bft) 100 %
13.07.2014 05:00 15,2 C 15,2 C 15,3 C 88 % 1010,6 hPa 0,0 l/m 0,0 km/h (0 Bft) W-SW 247 0 min 0,000 mm 0 W/m 13,2 C 15,2 C 3,2 km/h (1 Bft) 100 %
13.07.2014 05:10 15,1 C 15,1 C 15,2 C 87 % 1010,5 hPa 0,0 l/m 0,0 km/h (0 Bft) W-SW 247 0 min 0,000 mm 0 W/m 13,0 C 15,1 C 4,8 km/h (1 Bft) 100 %
13.07.2014 05:20 15,1 C 15,1 C 15,2 C 87 % 1010,5 hPa 0,0 l/m 0,0 km/h (0 Bft) W-SW 247 0 min 0,000 mm 0 W/m 13,0 C 15,1 C 3,2 km/h (1 Bft) 100 %
13.07.2014 05:30 15,1 C 15,1 C 15,1 C 87 % 1010,5 hPa 0,0 l/m 0,0 km/h (0 Bft) W-SW 247 0 min 0,000 mm 0 W/m 13,0 C 15,1 C 6,4 km/h (2 Bft) 100 %
13.07.2014 05:40 15,1 C 15,1 C 15,1 C 87 % 1010,6 hPa 0,0 l/m 0,0 km/h (0 Bft) W-SW 247 0 min 0,000 mm 5 W/m 13,0 C 15,1 C 6,4 km/h (2 Bft) 100 %
13.07.2014 05:50 15,1 C 15,1 C 15,1 C 87 % 1010,6 hPa 0,0 l/m 0,0 km/h (0 Bft) W-SW 247 0 min 0,000 mm 7 W/m 13,0 C 15,1 C 4,8 km/h (1 Bft) 100 %
13.07.2014 06:00 15,1 C 15,1 C 15,1 C 87 % 1010,6 hPa 0,0 l/m 1,6 km/h (1 Bft) W-SW 247 0 min 0,000 mm 9 W/m 13,0 C 15,1 C 4,8 km/h (1 Bft) 100 %
13.07.2014 06:10 15,1 C 15,1 C 15,1 C 87 % 1010,6 hPa 0,0 l/m 0,0 km/h (0 Bft) W-SW 247 0 min 0,000 mm 11 W/m 13,0 C 15,1 C 1,6 km/h (1 Bft) 99 %
13.07.2014 06:20 15,1 C 15,1 C 15,1 C 87 % 1010,7 hPa 0,0 l/m 0,0 km/h (0 Bft) S-SW 202 0 min 0,000 mm 7 W/m 13,0 C 15,1 C 6,4 km/h (2 Bft) 100 %
13.07.2014 06:30 15,1 C 15,1 C 15,1 C 87 % 1010,7 hPa 0,0 l/m 0,0 km/h (0 Bft) S-SW 202 0 min 0,000 mm 12 W/m 13,0 C 15,1 C 4,8 km/h (1 Bft) 100 %
13.07.2014 06:40 15,1 C 15,1 C 15,1 C 87 % 1010,6 hPa 0,0 l/m 0,0 km/h (0 Bft) S-SW 202 0 min 0,000 mm 11 W/m 13,0 C 15,1 C 6,4 km/h (2 Bft) 100 %
13.07.2014 06:50 15,1 C 15,1 C 15,1 C 87 % 1010,6 hPa 0,0 l/m 0,0 km/h (0 Bft) S-SW 202 0 min 0,000 mm 9 W/m 13,0 C 15,1 C 3,2 km/h (1 Bft) 99 %
13.07.2014 07:00 15,1 C 15,1 C 15,1 C 87 % 1010,6 hPa 0,0 l/m 1,6 km/h (1 Bft) S 180 0 min 0,000 mm 11 W/m 13,0 C 15,1 C 6,4 km/h (2 Bft) 100 %
13.07.2014 07:10 15,1 C 15,1 C 15,1 C 87 % 1010,6 hPa 0,0 l/m 1,6 km/h (1 Bft) S 180 0 min 0,000 mm 26 W/m 13,0 C 15,1 C 8,0 km/h (2 Bft) 100 %
13.07.2014 07:20 15,1 C 15,1 C 15,1 C 87 % 1010,6 hPa 0,2 l/m 1,6 km/h (1 Bft) S-SO 157 0 min 0,000 mm 33 W/m 13,0 C 15,1 C 4,8 km/h (1 Bft) 100 %
13.07.2014 07:30 15,1 C 15,1 C 15,1 C 87 % 1010,6 hPa 0,0 l/m 3,2 km/h (1 Bft) S-SO 157 0 min 0,000 mm 33 W/m 13,0 C 15,1 C 6,4 km/h (2 Bft) 100 %
13.07.2014 07:40 15,2 C 15,1 C 15,2 C 87 % 1010,6 hPa 0,0 l/m 3,2 km/h (1 Bft) S-SO 157 0 min 0,000 mm 25 W/m 13,0 C 15,2 C 8,0 km/h (2 Bft) 100 %
13.07.2014 07:50 15,2 C 15,1 C 15,2 C 87 % 1010,6 hPa 0,0 l/m 1,6 km/h (1 Bft) S-SO 157 0 min 0,000 mm 21 W/m 13,0 C 15,2 C 8,0 km/h (2 Bft) 100 %
13.07.2014 08:00 15,2 C 15,2 C 15,2 C 87 % 1010,5 hPa 0,0 l/m 1,6 km/h (1 Bft) S 180 0 min 0,025 mm 16 W/m 13,0 C 15,2 C 8,0 km/h (2 Bft) 100 %
13.07.2014 08:10 15,3 C 15,2 C 15,3 C 87 % 1010,4 hPa 0,0 l/m 4,8 km/h (1 Bft) S-SW 202 0 min 0,000 mm 26 W/m 13,1 C 15,3 C 11,3 km/h (2 Bft) 100 %
13.07.2014 08:20 15,3 C 15,3 C 15,3 C 87 % 1010,4 hPa 0,0 l/m 6,4 km/h (2 Bft) S-SW 202 0 min 0,000 mm 37 W/m 13,1 C 15,3 C 14,5 km/h (3 Bft) 100 %
13.07.2014 08:30 15,4 C 15,3 C 15,4 C 87 % 1010,4 hPa 0,0 l/m 4,8 km/h (1 Bft) S-SW 202 0 min 0,000 mm 109 W/m 13,2 C 15,4 C 12,9 km/h (3 Bft) 100 %
13.07.2014 08:40 15,6 C 15,4 C 15,6 C 87 % 1010,4 hPa 0,0 l/m 3,2 km/h (1 Bft) SW 225 0 min 0,000 mm 111 W/m 13,4 C 15,6 C 11,3 km/h (2 Bft) 99 %
13.07.2014 08:50 15,5 C 15,5 C 15,6 C 87 % 1010,5 hPa 0,2 l/m 4,8 km/h (1 Bft) W-SW 247 0 min 0,000 mm 74 W/m 13,3 C 15,5 C 19,3 km/h (3 Bft) 100 %
13.07.2014 09:00 15,4 C 15,4 C 15,5 C 87 % 1010,6 hPa 0,4 l/m 4,8 km/h (1 Bft) W 270 0 min 0,025 mm 58 W/m 13,2 C 15,4 C 14,5 km/h (3 Bft) 100 %
13.07.2014 09:10 15,4 C 15,4 C 15,5 C 87 % 1010,4 hPa 0,0 l/m 3,2 km/h (1 Bft) W-SW 247 0 min 0,000 mm 49 W/m 13,2 C 15,4 C 16,1 km/h (3 Bft) 99 %
13.07.2014 09:20 15,4 C 15,4 C 15,5 C 87 % 1010,4 hPa 0,2 l/m 1,6 km/h (1 Bft) SW 225 0 min 0,000 mm 65 W/m 13,2 C 15,4 C 9,7 km/h (2 Bft) 100 %
13.07.2014 09:30 15,5 C 15,4 C 15,5 C 87 % 1010,5 hPa 0,0 l/m 3,2 km/h (1 Bft) SW 225 0 min 0,000 mm 65 W/m 13,3 C 15,5 C 9,7 km/h (2 Bft) 100 %
13.07.2014 09:40 15,6 C 15,5 C 15,6 C 87 % 1010,5 hPa 0,0 l/m 1,6 km/h (1 Bft) SW 225 0 min 0,000 mm 56 W/m 13,4 C 15,6 C 6,4 km/h (2 Bft) 100 %
13.07.2014 09:50 15,6 C 15,6 C 15,6 C 87 % 1010,6 hPa 0,0 l/m 0,0 km/h (0 Bft) SW 225 0 min 0,000 mm 40 W/m 13,4 C 15,6 C 1,6 km/h (1 Bft) 100 %
13.07.2014 10:00 15,7 C 15,6 C 15,7 C 87 % 1010,5 hPa 0,0 l/m 0,0 km/h (0 Bft) SW 225 0 min 0,025 mm 74 W/m 13,5 C 15,7 C 6,4 km/h (2 Bft) 100 %
13.07.2014 10:10 15,8 C 15,7 C 15,8 C 87 % 1010,4 hPa 0,0 l/m 0,0 km/h (0 Bft) SW 225 0 min 0,000 mm 111 W/m 13,6 C 15,8 C 4,8 km/h (1 Bft) 100 %
13.07.2014 10:20 15,9 C 15,8 C 15,9 C 87 % 1010,3 hPa 0,0 l/m 1,6 km/h (1 Bft) S-SO 157 0 min 0,000 mm 141 W/m 13,7 C 15,9 C 6,4 km/h (2 Bft) 100 %
13.07.2014 10:30 16,2 C 15,9 C 16,2 C 87 % 1010,1 hPa 0,0 l/m 1,6 km/h (1 Bft) S-SO 157 10 min 0,000 mm 227 W/m 14,0 C 16,2 C 4,8 km/h (1 Bft) 100 %
13.07.2014 10:40 16,5 C 15,9 C 16,5 C 87 % 1010,1 hPa 0,0 l/m 2,2 km/h (1 Bft) S 177 10 min 0,000 mm 214 W/m 14,3 C 16,5 C 8,0 km/h (2 Bft) 100 %
13.07.2014 10:50 16,8 C 16,5 C 16,8 C 87 % 1010,2 hPa 0,0 l/m 3,2 km/h (1 Bft) S-SW 197 10 min 0,000 mm 165 W/m 14,6 C 16,8 C 9,7 km/h (2 Bft) 100 %
13.07.2014 11:00 16,9 C 16,8 C 16,9 C 87 % 1010,1 hPa 0,0 l/m 5,1 km/h (1 Bft) S-SW 208 10 min 0,079 mm 258 W/m 14,7 C 16,9 C 9,7 km/h (2 Bft) 100 %
13.07.2014 11:10 17,2 C 16,9 C 17,2 C 88 % 1010,0 hPa 0,0 l/m 5,7 km/h (1 Bft) S 186 10 min 0,000 mm 241 W/m 15,2 C 17,2 C 16,1 km/h (3 Bft) 100 %
13.07.2014 11:20 17,6 C 17,2 C 17,6 C 89 % 1009,8 hPa 0,0 l/m 5,5 km/h (1 Bft) SW 218 10 min 0,000 mm 464 W/m 15,8 C 17,6 C 14,5 km/h (3 Bft) 100 %
13.07.2014 11:30 18,2 C 17,6 C 18,2 C 88 % 1009,7 hPa 0,0 l/m 8,2 km/h (2 Bft) S-SW 197 10 min 0,000 mm 374 W/m 16,2 C 17,4 C 16,1 km/h (3 Bft) 99 %
13.07.2014 11:40 18,6 C 18,2 C 18,6 C 86 % 1009,8 hPa 0,0 l/m 8,4 km/h (2 Bft) W-NW 286 10 min 0,000 mm 188 W/m 16,2 C 17,7 C 17,7 km/h (3 Bft) 100 %
13.07.2014 11:50 18,4 C 18,4 C 18,6 C 85 % 1009,8 hPa 0,8 l/m 5,5 km/h (1 Bft) W-SW 245 0 min 0,000 mm 56 W/m 15,8 C 18,4 C 19,3 km/h (3 Bft) 100 %
13.07.2014 12:00 18,2 C 18,2 C 18,4 C 87 % 1009,7 hPa 0,2 l/m 2,2 km/h (1 Bft) W 267 10 min 0,178 mm 336 W/m 16,0 C 18,2 C 8,0 km/h (2 Bft) 100 %
13.07.2014 12:10 18,6 C 18,2 C 18,6 C 87 % 1009,6 hPa 0,0 l/m 0,5 km/h (0 Bft) W-SW 244 10 min 0,000 mm 225 W/m 16,4 C 18,6 C 4,8 km/h (1 Bft) 100 %
13.07.2014 12:20 18,6 C 18,6 C 18,7 C 86 % 1009,4 hPa 0,0 l/m 3,8 km/h (1 Bft) SW 221 10 min 0,000 mm 153 W/m 16,2 C 18,6 C 14,5 km/h (3 Bft) 99 %
13.07.2014 12:30 18,7 C 18,6 C 18,7 C 86 % 1009,5 hPa 0,0 l/m 3,5 km/h (1 Bft) W 267 10 min 0,000 mm 253 W/m 16,3 C 18,7 C 14,5 km/h (3 Bft) 100 %
13.07.2014 12:40 18,7 C 18,7 C 18,7 C 86 % 1009,4 hPa 0,0 l/m 1,0 km/h (0 Bft) N-NW 343 0 min 0,000 mm 51 W/m 16,3 C 18,7 C 6,4 km/h (2 Bft) 100 %
13.07.2014 12:50 18,6 C 18,6 C 18,8 C 86 % 1009,5 hPa 0,0 l/m 0,8 km/h (0 Bft) NW 320 0 min 0,000 mm 83 W/m 16,2 C 18,6 C 8,0 km/h (2 Bft) 100 %
13.07.2014 13:00 18,3 C 18,3 C 18,6 C 87 % 1009,9 hPa 0,6 l/m 4,1 km/h (1 Bft) N-NW 334 0 min 0,101 mm 23 W/m 16,1 C 18,3 C 19,3 km/h (3 Bft) 100 %
13.07.2014 13:10 17,4 C 17,4 C 18,3 C 86 % 1009,4 hPa 1,4 l/m 10,7 km/h (2 Bft) W-SW 258 0 min 0,000 mm 130 W/m 15,0 C 15,5 C 27,4 km/h (4 Bft) 100 %
13.07.2014 13:20 17,3 C 17,2 C 17,4 C 87 % 1009,2 hPa 0,2 l/m 4,1 km/h (1 Bft) W-SW 253 10 min 0,000 mm 524 W/m 15,1 C 17,3 C 14,5 km/h (3 Bft) 100 %
13.07.2014 13:30 18,1 C 17,3 C 18,1 C 87 % 1009,2 hPa 0,0 l/m 4,9 km/h (1 Bft) W-SW 257 10 min 0,000 mm 770 W/m 15,9 C 18,1 C 17,7 km/h (3 Bft) 100 %
13.07.2014 13:40 19,1 C 18,1 C 19,1 C 87 % 1009,0 hPa 0,0 l/m 5,4 km/h (1 Bft) W-SW 250 10 min 0,000 mm 705 W/m 16,9 C 19,1 C 17,7 km/h (3 Bft) 99 %
13.07.2014 13:50 19,8 C 19,1 C 19,8 C 86 % 1008,9 hPa 0,0 l/m 7,6 km/h (2 Bft) SW 220 10 min 0,000 mm 872 W/m 17,4 C 19,3 C 16,1 km/h (3 Bft) 100 %
13.07.2014 14:00 19,9 C 19,8 C 20,0 C 85 % 1009,0 hPa 0,0 l/m 3,9 km/h (1 Bft) W-NW 292 10 min 0,280 mm 162 W/m 17,3 C 19,9 C 17,7 km/h (3 Bft) 100 %
13.07.2014 14:10 19,7 C 19,7 C 20,0 C 84 % 1009,0 hPa 0,2 l/m 4,8 km/h (1 Bft) NW 304 0 min 0,000 mm 63 W/m 16,9 C 19,7 C 17,7 km/h (3 Bft) 100 %
13.07.2014 14:20 19,3 C 19,3 C 19,7 C 86 % 1009,1 hPa 0,0 l/m 5,9 km/h (2 Bft) N-NW 338 0 min 0,000 mm 51 W/m 16,9 C 19,3 C 17,7 km/h (3 Bft) 100 %
13.07.2014 14:30 18,7 C 18,7 C 19,3 C 86 % 1009,0 hPa 2,0 l/m 4,7 km/h (1 Bft) N-NW 348 10 min 0,000 mm 236 W/m 16,3 C 18,7 C 14,5 km/h (3 Bft) 100 %
13.07.2014 14:40 18,2 C 18,2 C 18,7 C 87 % 1009,0 hPa 0,0 l/m 0,2 km/h (0 Bft) N-NW 331 0 min 0,000 mm 25 W/m 16,0 C 18,2 C 4,8 km/h (1 Bft) 100 %
13.07.2014 14:50 17,4 C 17,4 C 18,2 C 87 % 1009,3 hPa 5,0 l/m 3,3 km/h (1 Bft) NW 311 0 min 0,000 mm 130 W/m 15,2 C 17,4 C 16,1 km/h (3 Bft) 100 %
13.07.2014 15:00 17,3 C 17,2 C 17,4 C 87 % 1009,2 hPa 0,0 l/m 0,7 km/h (0 Bft) N-NW 344 0 min 0,076 mm 98 W/m 15,1 C 17,3 C 6,4 km/h (2 Bft) 100 %
13.07.2014 15:10 17,1 C 17,1 C 17,3 C 87 % 1009,3 hPa 1,8 l/m 4,0 km/h (1 Bft) N-NW 340 0 min 0,000 mm 40 W/m 14,9 C 17,1 C 14,5 km/h (3 Bft) 100 %
13.07.2014 15:20 16,8 C 16,8 C 17,1 C 87 % 1009,3 hPa 0,2 l/m 7,2 km/h (2 Bft) W-SW 254 0 min 0,000 mm 98 W/m 14,6 C 16,4 C 19,3 km/h (3 Bft) 100 %
13.07.2014 15:30 16,8 C 16,8 C 16,8 C 87 % 1009,3 hPa 0,4 l/m 2,1 km/h (1 Bft) W 265 10 min 0,000 mm 206 W/m 14,6 C 16,8 C 14,5 km/h (3 Bft) 100 %
13.07.2014 15:40 17,1 C 16,8 C 17,1 C 87 % 1009,1 hPa 0,0 l/m 0,1 km/h (0 Bft) W 265 10 min 0,000 mm 271 W/m 14,9 C 17,1 C 4,8 km/h (1 Bft) 100 %
13.07.2014 15:50 17,7 C 17,1 C 17,7 C 87 % 1009,0 hPa 0,0 l/m 1,1 km/h (1 Bft) NW 311 10 min 0,000 mm 297 W/m 15,5 C 17,7 C 8,0 km/h (2 Bft) 100 %
13.07.2014 16:00 18,2 C 17,7 C 18,2 C 87 % 1008,8 hPa 0,0 l/m 5,3 km/h (1 Bft) NW 313 10 min 0,127 mm 302 W/m 16,0 C 18,2 C 17,7 km/h (3 Bft) 100 %
13.07.2014 16:10 18,5 C 18,2 C 18,5 C 87 % 1008,7 hPa 0,0 l/m 4,0 km/h (1 Bft) NW 310 10 min 0,000 mm 413 W/m 16,3 C 18,5 C 11,3 km/h (2 Bft) 100 %
13.07.2014 16:20 19,1 C 18,5 C 19,1 C 87 % 1008,6 hPa 0,0 l/m 3,7 km/h (1 Bft) W-SW 257 10 min 0,000 mm 763 W/m 16,9 C 19,1 C 14,5 km/h (3 Bft) 100 %
13.07.2014 16:30 19,5 C 19,1 C 19,5 C 87 % 1008,6 hPa 0,0 l/m 5,4 km/h (1 Bft) W-NW 301 10 min 0,000 mm 575 W/m 17,3 C 19,5 C 17,7 km/h (3 Bft) 100 %
13.07.2014 16:40 19,8 C 19,5 C 19,8 C 85 % 1008,4 hPa 0,0 l/m 6,4 km/h (2 Bft) W-NW 288 10 min 0,000 mm 394 W/m 17,2 C 19,8 C 16,1 km/h (3 Bft) 100 %
13.07.2014 16:50 20,1 C 19,8 C 20,1 C 84 % 1008,5 hPa 0,0 l/m 6,4 km/h (2 Bft) W-NW 290 10 min 0,000 mm 206 W/m 17,3 C 20,1 C 16,1 km/h (3 Bft) 100 %
13.07.2014 17:00 20,1 C 20,1 C 20,1 C 82 % 1008,4 hPa 0,0 l/m 7,8 km/h (2 Bft) W-NW 297 10 min 0,305 mm 213 W/m 16,9 C 19,5 C 20,9 km/h (4 Bft) 100 %
13.07.2014 17:10 19,9 C 19,9 C 20,1 C 84 % 1008,6 hPa 0,0 l/m 6,0 km/h (2 Bft) W-NW 301 10 min 0,000 mm 225 W/m 17,1 C 19,9 C 11,3 km/h (2 Bft) 100 %
13.07.2014 17:20 19,8 C 19,8 C 19,9 C 83 % 1008,6 hPa 0,0 l/m 5,2 km/h (1 Bft) W 279 10 min 0,000 mm 332 W/m 16,8 C 19,8 C 12,9 km/h (3 Bft) 100 %
13.07.2014 17:30 20,0 C 19,8 C 20,0 C 85 % 1008,5 hPa 0,0 l/m 4,0 km/h (1 Bft) W-NW 286 10 min 0,000 mm 279 W/m 17,4 C 20,0 C 9,7 km/h (2 Bft) 100 %
13.07.2014 17:40 20,2 C 20,0 C 20,2 C 84 % 1008,3 hPa 0,0 l/m 3,5 km/h (1 Bft) SW 234 10 min 0,000 mm 332 W/m 17,4 C 20,2 C 11,3 km/h (2 Bft) 99 %
13.07.2014 17:50 20,3 C 20,2 C 20,4 C 83 % 1008,3 hPa 0,0 l/m 4,5 km/h (1 Bft) S-SW 204 0 min 0,000 mm 148 W/m 17,3 C 20,3 C 14,5 km/h (3 Bft) 100 %
13.07.2014 18:00 19,9 C 19,9 C 20,3 C 81 % 1008,3 hPa 0,0 l/m 6,8 km/h (2 Bft) SW 232 10 min 0,152 mm 158 W/m 16,5 C 19,7 C 16,1 km/h (3 Bft) 100 %
13.07.2014 18:10 19,7 C 19,7 C 19,9 C 82 % 1008,3 hPa 0,0 l/m 3,5 km/h (1 Bft) S-SW 210 0 min 0,000 mm 60 W/m 16,5 C 19,7 C 9,7 km/h (2 Bft) 100 %
13.07.2014 18:20 19,5 C 19,5 C 19,7 C 82 % 1008,2 hPa 0,0 l/m 1,1 km/h (1 Bft) SW 218 0 min 0,000 mm 91 W/m 16,3 C 19,5 C 8,0 km/h (2 Bft) 100 %
13.07.2014 18:30 19,4 C 19,4 C 19,5 C 83 % 1008,3 hPa 0,0 l/m 0,7 km/h (0 Bft) W 263 0 min 0,000 mm 111 W/m 16,4 C 19,4 C 6,4 km/h (2 Bft) 100 %
13.07.2014 18:40 19,4 C 19,4 C 19,4 C 83 % 1008,3 hPa 0,0 l/m 2,8 km/h (1 Bft) W 274 0 min 0,000 mm 81 W/m 16,4 C 19,4 C 9,7 km/h (2 Bft) 100 %
13.07.2014 18:50 19,3 C 19,3 C 19,4 C 83 % 1008,4 hPa 0,0 l/m 3,2 km/h (1 Bft) W-SW 257 10 min 0,000 mm 213 W/m 16,3 C 19,3 C 9,7 km/h (2 Bft) 100 %
13.07.2014 19:00 19,3 C 19,3 C 19,3 C 83 % 1008,4 hPa 0,0 l/m 3,0 km/h (1 Bft) W 266 0 min 0,076 mm 107 W/m 16,3 C 19,3 C 9,7 km/h (2 Bft) 100 %
13.07.2014 19:10 19,4 C 19,3 C 19,4 C 85 % 1008,3 hPa 0,0 l/m 1,6 km/h (1 Bft) W-NW 298 0 min 0,000 mm 44 W/m 16,8 C 19,4 C 8,0 km/h (2 Bft) 100 %
13.07.2014 19:20 19,2 C 19,2 C 19,4 C 85 % 1008,5 hPa 0,0 l/m 0,3 km/h (0 Bft) W-NW 298 0 min 0,000 mm 39 W/m 16,6 C 19,2 C 6,4 km/h (2 Bft) 100 %
13.07.2014 19:30 19,0 C 19,0 C 19,2 C 85 % 1008,6 hPa 0,0 l/m 0,8 km/h (0 Bft) W 265 0 min 0,000 mm 16 W/m 16,4 C 19,0 C 6,4 km/h (2 Bft) 100 %
13.07.2014 19:40 18,7 C 18,7 C 19,0 C 86 % 1008,7 hPa 0,2 l/m 4,9 km/h (1 Bft) W 276 0 min 0,000 mm 9 W/m 16,3 C 18,7 C 20,9 km/h (4 Bft) 100 %
13.07.2014 19:50 18,2 C 18,2 C 18,7 C 85 % 1008,6 hPa 0,4 l/m 5,2 km/h (1 Bft) SW 235 0 min 0,000 mm 11 W/m 15,6 C 18,2 C 17,7 km/h (3 Bft) 100 %
13.07.2014 20:00 17,4 C 17,4 C 18,2 C 86 % 1008,5 hPa 0,0 l/m 3,8 km/h (1 Bft) S-SW 192 0 min 0,026 mm 46 W/m 15,0 C 17,4 C 11,3 km/h (2 Bft) 100 %
13.07.2014 20:10 17,0 C 17,0 C 17,4 C 87 % 1008,6 hPa 0,0 l/m 1,9 km/h (1 Bft) SW 217 0 min 0,000 mm 46 W/m 14,8 C 17,0 C 9,7 km/h (2 Bft) 100 %
13.07.2014 20:20 16,8 C 16,8 C 17,0 C 87 % 1008,7 hPa 0,0 l/m 0,7 km/h (0 Bft) S-SW 213 0 min 0,000 mm 30 W/m 14,6 C 16,8 C 6,4 km/h (2 Bft) 100 %
13.07.2014 20:30 16,6 C 16,6 C 16,8 C 87 % 1008,7 hPa 0,0 l/m 1,7 km/h (1 Bft) S-SO 150 0 min 0,000 mm 21 W/m 14,4 C 16,6 C 6,4 km/h (2 Bft) 100 %
13.07.2014 20:40 16,4 C 16,4 C 16,6 C 87 % 1008,8 hPa 0,0 l/m 1,7 km/h (1 Bft) S 169 0 min 0,000 mm 14 W/m 14,2 C 16,4 C 6,4 km/h (2 Bft) 100 %
13.07.2014 20:50 16,2 C 16,2 C 16,4 C 87 % 1008,8 hPa 0,0 l/m 5,0 km/h (1 Bft) S 190 0 min 0,000 mm 12 W/m 14,0 C 16,2 C 12,9 km/h (3 Bft) 100 %
13.07.2014 21:00 15,9 C 15,9 C 16,2 C 87 % 1008,9 hPa 0,0 l/m 5,1 km/h (1 Bft) S-SW 205 0 min 0,025 mm 9 W/m 13,7 C 15,9 C 11,3 km/h (2 Bft) 100 %
13.07.2014 21:10 15,8 C 15,8 C 15,9 C 87 % 1008,9 hPa 0,0 l/m 4,8 km/h (1 Bft) S-SW 202 0 min 0,000 mm 9 W/m 13,6 C 15,8 C 11,3 km/h (2 Bft) 100 %
13.07.2014 21:20 15,7 C 15,7 C 15,8 C 87 % 1008,9 hPa 0,0 l/m 1,6 km/h (1 Bft) S-SW 202 0 min 0,000 mm 5 W/m 13,5 C 15,7 C 8,0 km/h (2 Bft) 100 %
13.07.2014 21:30 15,6 C 15,6 C 15,7 C 88 % 1009,0 hPa 0,0 l/m 0,0 km/h (0 Bft) S 180 0 min 0,000 mm 0 W/m 13,6 C 15,6 C 1,6 km/h (1 Bft) 100 %
13.07.2014 21:40 15,5 C 15,5 C 15,6 C 87 % 1009,1 hPa 0,0 l/m 0,0 km/h (0 Bft) S-SO 157 0 min 0,000 mm 0 W/m 13,3 C 15,5 C 1,6 km/h (1 Bft) 100 %
13.07.2014 21:50 15,5 C 15,4 C 15,5 C 87 % 1009,3 hPa 0,0 l/m 1,6 km/h (1 Bft) S-SO 157 0 min 0,000 mm 0 W/m 13,3 C 15,5 C 4,8 km/h (1 Bft) 100 %
13.07.2014 22:00 15,5 C 15,4 C 15,5 C 87 % 1009,4 hPa 0,0 l/m 0,0 km/h (0 Bft) S-SO 157 0 min 0,000 mm 0 W/m 13,3 C 15,5 C 4,8 km/h (1 Bft) 100 %
13.07.2014 22:10 15,4 C 15,4 C 15,5 C 87 % 1009,4 hPa 0,0 l/m 3,2 km/h (1 Bft) S-SO 157 0 min 0,000 mm 0 W/m 13,2 C 15,4 C 6,4 km/h (2 Bft) 100 %
13.07.2014 22:20 15,4 C 15,3 C 15,4 C 87 % 1009,5 hPa 0,0 l/m 4,8 km/h (1 Bft) S-SO 157 0 min 0,000 mm 0 W/m 13,2 C 15,4 C 8,0 km/h (2 Bft) 99 %
13.07.2014 22:30 15,4 C 15,4 C 15,4 C 87 % 1009,5 hPa 0,0 l/m 3,2 km/h (1 Bft) S-SO 157 0 min 0,000 mm 0 W/m 13,2 C 15,4 C 6,4 km/h (2 Bft) 100 %
13.07.2014 22:40 15,4 C 15,4 C 15,5 C 87 % 1009,5 hPa 0,0 l/m 4,8 km/h (1 Bft) SO 135 0 min 0,000 mm 0 W/m 13,2 C 15,4 C 9,7 km/h (2 Bft) 100 %
13.07.2014 22:50 15,5 C 15,4 C 15,5 C 87 % 1009,5 hPa 0,0 l/m 1,6 km/h (1 Bft) S-SO 157 0 min 0,000 mm 0 W/m 13,3 C 15,5 C 9,7 km/h (2 Bft) 100 %
13.07.2014 23:00 15,5 C 15,5 C 15,5 C 87 % 1009,5 hPa 0,0 l/m 1,6 km/h (1 Bft) S-SO 157 0 min 0,025 mm 0 W/m 13,3 C 15,5 C 6,4 km/h (2 Bft) 99 %
13.07.2014 23:10 15,5 C 15,4 C 15,5 C 87 % 1009,5 hPa 0,0 l/m 4,8 km/h (1 Bft) S 180 0 min 0,000 mm 0 W/m 13,3 C 15,5 C 14,5 km/h (3 Bft) 100 %
13.07.2014 23:20 15,5 C 15,5 C 15,5 C 87 % 1009,5 hPa 0,0 l/m 4,8 km/h (1 Bft) S-SO 157 0 min 0,000 mm 0 W/m 13,3 C 15,5 C 9,7 km/h (2 Bft) 100 %
13.07.2014 23:30 15,4 C 15,4 C 15,5 C 87 % 1009,5 hPa 0,0 l/m 3,2 km/h (1 Bft) S-SO 157 0 min 0,000 mm 0 W/m 13,2 C 15,4 C 11,3 km/h (2 Bft) 100 %
13.07.2014 23:40 15,4 C 15,4 C 15,4 C 87 % 1009,5 hPa 0,0 l/m 4,8 km/h (1 Bft) S-SO 157 0 min 0,000 mm 0 W/m 13,2 C 15,4 C 9,7 km/h (2 Bft) 100 %
13.07.2014 23:50 15,4 C 15,4 C 15,4 C 87 % 1009,5 hPa 0,0 l/m 3,2 km/h (1 Bft) S-SO 157 0 min 0,000 mm 0 W/m 13,2 C 15,4 C 9,7 km/h (2 Bft) 99 %
_ Min-Zeit 05:10 05:10 05:30 18:00 18:20 - 03:10 - - - - - 05:10 05:10 03:10 08:40
Minimum _ 15,1 C 15,1 C 15,1 C 81 % 1008,2 hPa - 0,0 km/h (0 Bft) - - - - - 13,0 C 15,1 C 1,6 km/h (1 Bft) 99 %
_ Max-Zeit 17:50 17:50 17:50 11:20 00:00 14:50 13:10 - - 10:30 17:00 13:50 17:40 17:50 13:10 00:00
Maximum _ 20,4 C 20,2 C 20,4 C 89 % 1011,2 hPa 5,0 l/m 10,7 km/h
W-SW (2 Bft)
- - 10 min 0,305 mm 872 W/m 17,4 C 20,3 C 27,4 km/h
W-NW (4 Bft)
100 %
Durchschnitt _ 16,9 C 16,8 C 16,9 C 86 % 1009,8 hPa #15,2 l/m 3,1 km/h (1 Bft) W-SW - #5:40 h #1,625 mm 153 W/m 14,6 C 16,8 C 10,6 km/h (2 Bft) 100 %
PRIVATE WETTERSTATION BILLIGHEIM-ALLFELD - www.neckar-odenwald-wetter.de - Holger Sonntag